Hourly Weather Idzhewan

Today, 20 September, Sunday

Time Temperature Precipitation Wind Pressure Humidity
00:00 +15°C° 0 mm 0 mps 692 mmHg 73%
01:00 +15°C° 0 mm 0 mps 693 mmHg 75%
02:00 +14°C° 0 mm 0 mps 693 mmHg 77%
03:00 +14°C° 0 mm 0 mps 693 mmHg 78%
04:00 +14°C° 0 mm 0 mps 693 mmHg 80%
05:00 +14°C° 0 mm 1 mps 693 mmHg 82%
06:00 +14°C° 0 mm 1 mps 694 mmHg 84%
07:00 +16°C° 0 mm 1 mps 694 mmHg 77%
08:00 +18°C° 0 mm 2 mps 694 mmHg 70%
09:00 +19°C° 0 mm 2 mps 694 mmHg 64%
10:00 +20°C° 0 mm 2 mps 694 mmHg 63%
11:00 +20°C° 0 mm 3 mps 694 mmHg 62%
12:00 +21°C° 0 mm 3 mps 694 mmHg 61%
13:00 +21°C° 0 mm 3 mps 693 mmHg 61%
14:00 +21°C° 0 mm 2 mps 693 mmHg 61%
15:00 +21°C° 0 mm 3 mps 693 mmHg 62%
16:00 +20°C° 0 mm 2 mps 693 mmHg 66%
17:00 +19°C° 0 mm 2 mps 693 mmHg 71%
18:00 +19°C° 0 mm 1 mps 693 mmHg 75%
19:00 +18°C° 0 mm 1 mps 693 mmHg 77%
20:00 +16°C° 0 mm 1 mps 693 mmHg 79%
21:00 +16°C° 0 mm 1 mps 694 mmHg 82%
22:00 +16°C° 0 mm 1 mps 694 mmHg 82%
23:00 +15°C° 0 mm 1 mps 694 mmHg 83%

Tomorrow, 21 September, Monday

Time Temperature Precipitation Wind Pressure Humidity
00:00 +14°C° 0 mm 0 mps 694 mmHg 83%
01:00 +14°C° 0 mm 0 mps 694 mmHg 85%
02:00 +13°C° 0 mm 0 mps 694 mmHg 87%
03:00 +13°C° 0 mm 0 mps 694 mmHg 89%
04:00 +13°C° 0 mm 0 mps 695 mmHg 89%
05:00 +13°C° 0 mm 0 mps 695 mmHg 88%
06:00 +14°C° 0 mm 0 mps 695 mmHg 88%
07:00 +14°C° 0 mm 0 mps 696 mmHg 87%
08:00 +16°C° 0 mm 1 mps 696 mmHg 86%
09:00 +18°C° 0 mm 1 mps 696 mmHg 85%
10:00 +18°C° 0.1 mm 1 mps 696 mmHg 86%
11:00 +18°C° 0.1 mm 2 mps 696 mmHg 87%
12:00 +18°C° 0.1 mm 2 mps 696 mmHg 87%
13:00 +18°C° 0.1 mm 2 mps 695 mmHg 89%
14:00 +18°C° 0.1 mm 2 mps 695 mmHg 90%
15:00 +18°C° 0.1 mm 2 mps 695 mmHg 91%
16:00 +17°C° 0 mm 2 mps 695 mmHg 92%
17:00 +17°C° 0 mm 2 mps 695 mmHg 94%
18:00 +18°C° 0 mm 1 mps 695 mmHg 95%
19:00 +16°C° 0 mm 1 mps 695 mmHg 95%
20:00 +16°C° 0 mm 1 mps 696 mmHg 95%
21:00 +16°C° 0 mm 1 mps 696 mmHg 95%
22:00 +16°C° 0 mm 1 mps 696 mmHg 95%
23:00 +16°C° 0 mm 1 mps 696 mmHg 96%

Day after tomorrow, 22 September, Tuesday

Time Temperature Precipitation Wind Pressure Humidity
00:00 +16°C° 0 mm 1 mps 696 mmHg 96%
01:00 +16°C° 0.1 mm 1 mps 696 mmHg 96%
02:00 +16°C° 0.1 mm 1 mps 696 mmHg 96%
03:00 +15°C° 0.1 mm 0 mps 696 mmHg 95%
04:00 +15°C° 0.1 mm 0 mps 696 mmHg 95%
05:00 +15°C° 0.1 mm 0 mps 696 mmHg 96%
06:00 +15°C° 0.1 mm 0 mps 696 mmHg 96%
07:00 +16°C° 0.1 mm 1 mps 696 mmHg 92%
08:00 +18°C° 0.1 mm 1 mps 696 mmHg 88%
09:00 +18°C° 0.1 mm 2 mps 696 mmHg 85%
10:00 +18°C° 0.3 mm 2 mps 695 mmHg 83%
11:00 +19°C° 0.3 mm 2 mps 695 mmHg 81%
12:00 +19°C° 0.3 mm 2 mps 695 mmHg 79%
13:00 +19°C° 0.6 mm 2 mps 695 mmHg 80%
14:00 +20°C° 0.6 mm 1 mps 694 mmHg 81%
15:00 +20°C° 0.6 mm 1 mps 694 mmHg 81%
16:00 +20°C° 0.4 mm 1 mps 694 mmHg 84%
17:00 +19°C° 0.4 mm 1 mps 694 mmHg 87%
18:00 +19°C° 0.4 mm 1 mps 695 mmHg 90%
19:00 +18°C° 0.1 mm 1 mps 695 mmHg 91%
20:00 +18°C° 0.1 mm 1 mps 695 mmHg 92%
21:00 +16°C° 0.1 mm 1 mps 696 mmHg 92%
22:00 +18°C° 0 mm 1 mps 696 mmHg 92%
23:00 +16°C° 0 mm 0 mps 695 mmHg 92%

23 September, Wednesday

Time Temperature Precipitation Wind Pressure Humidity
00:00 +16°C° 0 mm 0 mps 695 mmHg 91%
01:00 +16°C° 0 mm 0 mps 695 mmHg 92%
02:00 +16°C° 0 mm 0 mps 695 mmHg 92%
03:00 +16°C° 0 mm 0 mps 695 mmHg 93%
04:00 +16°C° 0 mm 0 mps 695 mmHg 93%
05:00 +16°C° 0 mm 0 mps 695 mmHg 93%
06:00 +16°C° 0 mm 0 mps 696 mmHg 94%
07:00 +16°C° 0.1 mm 0 mps 696 mmHg 91%
08:00 +19°C° 0.1 mm 1 mps 696 mmHg 89%
09:00 +19°C° 0.1 mm 1 mps 696 mmHg 86%
10:00 +20°C° 0 mm 1 mps 695 mmHg 85%
11:00 +20°C° 0 mm 1 mps 695 mmHg 85%
12:00 +19°C° 0 mm 2 mps 695 mmHg 84%
13:00 +20°C° 0 mm 2 mps 694 mmHg 81%
14:00 +20°C° 0 mm 2 mps 694 mmHg 79%
15:00 +21°C° 0 mm 2 mps 694 mmHg 76%
16:00 +20°C° 0 mm 2 mps 693 mmHg 79%
17:00 +20°C° 0 mm 1 mps 693 mmHg 82%
18:00 +20°C° 0 mm 1 mps 693 mmHg 84%
19:00 +19°C° 0 mm 1 mps 694 mmHg 85%
20:00 +19°C° 0 mm 1 mps 694 mmHg 86%
21:00 +16°C° 0 mm 0 mps 694 mmHg 87%
22:00 +17°C° 0 mm 0 mps 694 mmHg 86%
23:00 +17°C° 0 mm 0 mps 694 mmHg 85%

24 September, Thursday

Time Temperature Precipitation Wind Pressure Humidity
00:00 +17°C° 0 mm 0 mps 694 mmHg 83%
01:00 +17°C° 0 mm 0 mps 694 mmHg 84%
02:00 +16°C° 0 mm 0 mps 694 mmHg 84%
03:00 +16°C° 0 mm 0 mps 694 mmHg 84%
04:00 +16°C° 0 mm 0 mps 694 mmHg 85%
05:00 +16°C° 0 mm 0 mps 694 mmHg 86%
06:00 +15°C° 0 mm 0 mps 694 mmHg 86%
07:00 +19°C° 0 mm 1 mps 694 mmHg 79%
08:00 +21°C° 0 mm 1 mps 694 mmHg 73%
09:00 +22°C° 0 mm 1 mps 694 mmHg 66%
10:00 +23°C° 0 mm 2 mps 694 mmHg 62%
11:00 +24°C° 0 mm 2 mps 694 mmHg 59%
12:00 +26°C° 0 mm 3 mps 694 mmHg 55%
13:00 +26°C° 0.1 mm 3 mps 694 mmHg 55%
14:00 +26°C° 0.1 mm 3 mps 693 mmHg 54%
15:00 +26°C° 0.1 mm 3 mps 693 mmHg 54%
16:00 +25°C° 0.1 mm 2 mps 693 mmHg 61%
17:00 +23°C° 0.1 mm 2 mps 692 mmHg 68%
18:00 +21°C° 0.1 mm 1 mps 692 mmHg 75%
19:00 +20°C° 0 mm 1 mps 692 mmHg 77%
20:00 +20°C° 0 mm 1 mps 693 mmHg 79%
21:00 +19°C° 0 mm 1 mps 693 mmHg 81%
22:00 +19°C° 0 mm 1 mps 693 mmHg 82%
23:00 +19°C° 0 mm 1 mps 693 mmHg 83%

25 September, Friday

Time Temperature Precipitation Wind Pressure Humidity
00:00 +18°C° 0 mm 1 mps 693 mmHg 84%
01:00 +18°C° 0 mm 1 mps 693 mmHg 84%
02:00 +16°C° 0 mm 0 mps 693 mmHg 85%
03:00 +15°C° 0 mm 0 mps 692 mmHg 85%
04:00 +15°C° 0 mm 0 mps 692 mmHg 85%
05:00 +15°C° 0 mm 0 mps 692 mmHg 85%
06:00 +15°C° 0 mm 0 mps 692 mmHg 85%
07:00 +18°C° 0 mm 1 mps 692 mmHg 77%
08:00 +20°C° 0 mm 1 mps 693 mmHg 70%
09:00 +22°C° 0 mm 1 mps 693 mmHg 62%
10:00 +23°C° 0 mm 2 mps 692 mmHg 59%
11:00 +24°C° 0 mm 2 mps 692 mmHg 56%
12:00 +25°C° 0 mm 2 mps 692 mmHg 53%
13:00 +25°C° 0.2 mm 2 mps 692 mmHg 54%
14:00 +25°C° 0.2 mm 2 mps 691 mmHg 56%
15:00 +25°C° 0.2 mm 2 mps 691 mmHg 57%
16:00 +23°C° 0.3 mm 2 mps 691 mmHg 62%
17:00 +21°C° 0.3 mm 1 mps 690 mmHg 68%
18:00 +20°C° 0.3 mm 1 mps 690 mmHg 74%
19:00 +19°C° 0.4 mm 1 mps 691 mmHg 75%
20:00 +19°C° 0.4 mm 1 mps 691 mmHg 77%
21:00 +19°C° 0.4 mm 1 mps 691 mmHg 79%
22:00 +18°C° 0.4 mm 1 mps 691 mmHg 80%
23:00 +18°C° 0.4 mm 1 mps 691 mmHg 81%
Show more